[[{"header":{"parameterUnit":"m.s-1","parameterCategory":1,"la1":30.2991,"la2":30.254,"lo1":-89.0895,"lo2":-89.0444,"dy":0.0017,"dx":0.0017,"nx":28,"ny":28,"refTime":"2025-04-06T09:00:00:Z","depth":0,"parameterNumber":2,"parameterNumberName":"U-component_of_WINDS"},"data":[0,0,0,0,0,0,0,0,0,0,0,0,0,0,0,0,0,0,0,0,0,0,0,0,0,0,0,0,0,0,0,0,0,0,0,0,0,0,0,0,0,0,0,0,0,0,0,0,0,0,0,0,0,0,0,0,0,0,-0.6156,-0.6157,0,-0.6259,-0.626,-0.6261,-0.6317,-0.6318,-0.6318,-0.6318,-0.6426,-0.6428,-0.6431,0,0,0,0,0,0,0,0,0,0,0,0,0,-0.6011,-0.6013,-0.6156,-0.6157,-0.6159,-0.6259,-0.626,-0.6262,-0.6317,-0.6318,-0.6318,-0.6318,-0.6425,-0.6428,-0.6431,0,0,0,0,0,0,0,0,0,0,0,0,0,-0.609,-0.6014,-0.6156,-0.6199,-0.6203,-0.6258,-0.626,-0.6262,-0.6317,-0.6318,-0.6318,-0.6318,-0.6424,-0.6428,-0.6432,-0.6453,0,0,-0.6444,-0.6446,0,0,0,0,0,0,0,0,-0.6085,-0.6095,-0.6191,-0.6196,-0.6201,-0.6276,-0.6249,-0.6326,-0.6317,-0.6274,-0.6318,-0.6318,-0.6376,-0.6384,-0.6403,-0.6458,-0.6463,-0.6445,-0.6447,-0.6449,-0.645,0,0,0,0,0,0,0,-0.608,-0.6091,-0.6197,-0.6192,-0.6199,-0.6213,-0.6225,-0.6264,-0.6323,-0.6278,-0.6282,-0.6294,-0.6379,-0.6399,-0.6406,-0.6465,-0.6445,-0.6448,-0.6451,-0.6453,-0.6544,-0.6544,0,0,0,0,0,0,-0.6067,-0.6086,-0.6194,-0.62,-0.6143,-0.6216,-0.6229,-0.6252,-0.6322,-0.6333,-0.6293,-0.6296,-0.6392,-0.6401,-0.641,-0.644,-0.6449,-0.6453,-0.6455,-0.6544,-0.6544,-0.6544,0,0,0,0,0,0,-0.6064,-0.6076,-0.619,-0.6144,-0.616,-0.6218,-0.6243,-0.6253,-0.6273,-0.6334,-0.6345,-0.6303,-0.6392,-0.6404,-0.6442,-0.6444,-0.6455,-0.6459,-0.6544,-0.6544,-0.6544,-0.65,0,0,0,0,0,0,-0.6059,-0.6075,-0.6083,-0.6144,-0.6162,-0.6219,-0.6243,-0.6255,-0.628,-0.6284,-0.6346,-0.6356,-0.6393,-0.6436,-0.6446,-0.645,-0.6462,-0.6544,-0.6544,-0.6544,-0.6501,-0.6498,-0.6496,0,0,0,0,0,-0.6054,-0.6067,-0.6083,-0.6095,-0.6173,-0.6219,-0.6229,-0.6271,-0.628,-0.6289,-0.6328,-0.6354,-0.6442,-0.6439,-0.6451,-0.6457,-0.6544,-0.6544,-0.6544,-0.6503,-0.6499,-0.6496,0,0,0,0,0,0,-0.6005,-0.6076,-0.6094,-0.6127,-0.6166,-0.6228,-0.6241,-0.6266,-0.6304,-0.6307,-0.6357,-0.6371,-0.6404,-0.6435,-0.6429,-0.6482,-0.6496,-0.6498,-0.646,-0.6457,-0.6455,-0.6447,-0.6465,0,0,0,0,0,-0.5998,-0.6028,-0.6089,-0.6112,-0.6131,-0.6182,-0.6204,-0.6232,-0.6276,-0.6293,-0.6335,-0.6376,-0.6414,-0.6437,-0.6475,-0.6506,-0.6521,-0.6516,-0.6513,-0.651,-0.6512,-0.6531,-0.653,-0.6543,-0.6543,-0.6543,0,0,-0.5984,-0.6026,-0.6042,-0.6103,-0.6137,-0.6168,-0.6196,-0.6228,-0.6252,-0.6298,-0.6336,-0.6368,-0.6419,-0.6453,-0.6471,-0.6479,-0.6511,-0.651,-0.6508,-0.6511,-0.6531,-0.653,-0.6528,-0.6543,-0.6543,-0.6543,0,0,-0.5974,-0.6009,-0.6032,-0.6065,-0.6116,-0.615,-0.6156,-0.6214,-0.6237,-0.6276,-0.6311,-0.6341,-0.6404,-0.6438,-0.6464,-0.6467,-0.6493,-0.6478,-0.6464,-0.6482,-0.6481,-0.648,-0.6482,-0.6482,-0.648,-0.648,-0.6479,0,-0.5951,-0.5998,-0.6041,-0.6071,-0.6097,-0.6139,-0.6164,-0.6194,-0.6255,-0.6272,-0.6281,-0.6361,-0.6398,-0.6441,-0.6442,-0.6461,-0.647,-0.6472,-0.6477,-0.6477,-0.6477,-0.6479,-0.648,-0.6477,-0.6478,-0.6478,-0.6478,0,-0.5967,-0.5999,-0.6012,-0.6068,-0.6096,-0.6123,-0.6171,-0.6194,-0.622,-0.6253,-0.6293,-0.6338,-0.6386,-0.6399,-0.6425,-0.6446,-0.645,-0.6467,-0.6483,-0.6473,-0.6476,-0.6477,-0.6474,-0.6475,-0.6476,-0.6476,0,0,-0.5929,-0.6009,-0.6013,-0.6039,-0.6098,-0.6125,-0.6154,-0.62,-0.6219,-0.6259,-0.6285,-0.6338,-0.6354,-0.6383,-0.6414,-0.643,-0.643,-0.6445,-0.6447,-0.6441,-0.6457,-0.6444,-0.6444,-0.6447,-0.6448,-0.6448,-0.6453,0,-0.5928,-0.5982,-0.6021,-0.606,-0.6091,-0.6131,-0.6157,-0.6197,-0.6229,-0.626,-0.6297,-0.6333,-0.6351,-0.6369,-0.6387,-0.6426,-0.6434,-0.6426,-0.6473,-0.6474,-0.646,-0.6445,-0.6432,-0.6434,-0.6454,-0.6455,-0.6455,0,-0.5934,-0.5972,-0.6014,-0.607,-0.6084,-0.6106,-0.6151,-0.6181,-0.6227,-0.6249,-0.6282,-0.6313,-0.6347,-0.6359,-0.6407,-0.64,-0.6422,-0.6444,-0.6446,-0.6452,-0.6464,-0.6452,-0.6436,-0.6436,-0.6457,-0.6457,-0.6457,0,-0.5903,-0.5965,-0.5998,-0.6019,-0.6085,-0.61,-0.6128,-0.6174,-0.6199,-0.6239,-0.6256,-0.63,-0.6324,-0.6357,-0.64,-0.6405,-0.6444,-0.6459,-0.6464,-0.6463,-0.6471,-0.647,-0.6458,-0.6484,-0.6484,-0.6484,-0.6484,0,-0.5898,-0.5922,-0.5985,-0.6005,-0.6033,-0.6079,-0.6106,-0.6138,-0.6178,-0.6206,-0.6245,-0.627,-0.6325,-0.6357,-0.6391,-0.6426,-0.6437,-0.6456,-0.6465,-0.6453,-0.6451,-0.6468,-0.6469,-0.6484,-0.6484,-0.6484,-0.6484,0,-0.5869,-0.5911,-0.595,-0.6009,-0.6024,-0.6042,-0.6094,-0.6115,-0.6149,-0.6184,-0.6195,-0.6249,-0.6289,-0.6335,-0.6391,-0.6414,-0.6446,-0.6459,-0.643,-0.6435,-0.6438,-0.6437,-0.6438,-0.6441,-0.6463,-0.6463,-0.6463,0,-0.5863,-0.5882,-0.5943,-0.5963,-0.599,-0.6024,-0.6049,-0.6095,-0.612,-0.6174,-0.619,-0.6233,-0.6269,-0.6332,-0.6377,-0.642,-0.6435,-0.6432,-0.6441,-0.6429,-0.6435,-0.6434,-0.6436,-0.6429,-0.6429,-0.6428,-0.6428,0,-0.5848,-0.5868,-0.5903,-0.5945,-0.5974,-0.601,-0.6047,-0.6062,-0.6116,-0.6143,-0.6184,-0.6212,-0.6269,-0.6311,-0.636,-0.6391,-0.6419,-0.6424,-0.6428,-0.6416,-0.6399,-0.6409,-0.6423,-0.6424,-0.6425,-0.6425,-0.6425,-0.6425,-0.583,-0.5849,-0.5895,-0.5933,-0.5965,-0.5999,-0.6022,-0.6059,-0.6094,-0.6143,-0.6168,-0.6209,-0.6255,-0.6323,-0.6353,-0.6387,-0.6396,-0.6401,-0.6402,-0.6403,-0.64,-0.6393,-0.6396,-0.6396,-0.6396,-0.6396,-0.6396,0,-0.5818,-0.5849,-0.5883,-0.5934,-0.5963,-0.5986,-0.6028,-0.6052,-0.6087,-0.6128,-0.6163,-0.621,-0.6252,-0.63,-0.6345,-0.6362,-0.6376,-0.6373,-0.6372,-0.6379,-0.6389,-0.6381,-0.6361,-0.6361,-0.6361,-0.6361,-0.6361,-0.6361,-0.5815,-0.5848,-0.5874,-0.5924,-0.5956,-0.5995,-0.6017,-0.6049,-0.6082,-0.6133,-0.6167,-0.6198,-0.6242,-0.629,-0.6329,-0.6343,-0.6358,-0.635,-0.6367,-0.6375,-0.6378,-0.6381,-0.6374,-0.6353,-0.6353,-0.6355,-0.6355,-0.6355]},{"header":{"parameterUnit":"m.s-1","parameterCategory":1,"la1":30.2991,"la2":30.254,"lo1":-89.0895,"lo2":-89.0444,"dy":0.0017,"dx":0.0017,"nx":28,"ny":28,"refTime":"2025-04-06T09:00:00:Z","depth":0,"parameterNumber":3,"parameterNumberName":"V-component_of_WINDS"},"data":[0,0,0,0,0,0,0,0,0,0,0,0,0,0,0,0,0,0,0,0,0,0,0,0,0,0,0,0,0,0,0,0,0,0,0,0,0,0,0,0,0,0,0,0,0,0,0,0,0,0,0,0,0,0,0,0,0,0,7.6703,7.6706,0,7.695,7.6952,7.6955,7.7017,7.7016,7.7014,7.7013,7.726,7.7268,7.7276,0,0,0,0,0,0,0,0,0,0,0,0,0,7.6284,7.6291,7.6703,7.6706,7.6709,7.6949,7.6952,7.6956,7.7017,7.7015,7.7014,7.7012,7.7257,7.7267,7.7277,0,0,0,0,0,0,0,0,0,0,0,0,0,7.6491,7.6294,7.6703,7.6769,7.6777,7.6948,7.6953,7.6957,7.7018,7.7015,7.7013,7.7011,7.7254,7.7266,7.7278,7.7399,0,0,7.7315,7.732,0,0,0,0,0,0,0,0,7.6479,7.6507,7.6756,7.6765,7.6774,7.695,7.6895,7.7105,7.7018,7.6926,7.7012,7.701,7.7159,7.7178,7.723,7.741,7.7421,7.7316,7.7323,7.7328,7.7332,0,0,0,0,0,0,0,7.6465,7.6496,7.68,7.676,7.6771,7.6786,7.6813,7.6935,7.7052,7.6934,7.6939,7.6968,7.7163,7.7218,7.7236,7.7425,7.7315,7.7326,7.7334,7.7338,7.772,7.7723,0,0,0,0,0,0,7.644,7.6484,7.6793,7.6808,7.6618,7.6795,7.6825,7.6896,7.7051,7.7073,7.697,7.697,7.7198,7.7222,7.7245,7.7399,7.7328,7.7339,7.7346,7.7717,7.7721,7.7724,0,0,0,0,0,0,7.643,7.6467,7.6783,7.6648,7.6689,7.6805,7.6884,7.6902,7.6957,7.7078,7.7099,7.7004,7.7197,7.7228,7.7361,7.7408,7.7345,7.7356,7.7714,7.7718,7.7722,7.7705,0,0,0,0,0,0,7.6418,7.6463,7.651,7.6648,7.6696,7.6896,7.6887,7.6909,7.6978,7.6981,7.7116,7.7136,7.7198,7.7343,7.7373,7.7423,7.7365,7.771,7.7716,7.7721,7.7702,7.7709,7.7714,0,0,0,0,0,7.6403,7.6494,7.6512,7.6549,7.6758,7.6898,7.6925,7.6996,7.6982,7.703,7.7109,7.7132,7.7398,7.7356,7.739,7.7445,7.7707,7.7714,7.772,7.77,7.7707,7.7714,0,0,0,0,0,0,7.6357,7.6513,7.6535,7.6674,7.6773,7.6908,7.6972,7.7001,7.7105,7.7103,7.7185,7.7215,7.7343,7.7407,7.7358,7.7572,7.7552,7.7566,7.7525,7.7533,7.7539,7.7521,7.7375,0,0,0,0,0,7.6363,7.6465,7.6596,7.6706,7.6754,7.6854,7.6918,7.6964,7.7069,7.711,7.7198,7.7298,7.7404,7.7472,7.7576,7.7712,7.7743,7.7767,7.7773,7.7777,7.7788,7.7866,7.7879,7.7745,7.7745,7.7745,0,0,7.6376,7.6475,7.6533,7.6699,7.6781,7.6884,7.6889,7.6997,7.7075,7.7126,7.7259,7.7326,7.7443,7.7579,7.7643,7.7636,7.7832,7.7785,7.7788,7.7797,7.7874,7.7887,7.7898,7.775,7.7749,7.7748,0,0,7.6454,7.6538,7.664,7.6723,7.6847,7.6914,7.6938,7.7071,7.7119,7.7253,7.7295,7.7387,7.7568,7.765,7.7716,7.7827,7.7853,7.7859,7.7889,7.7965,7.7976,7.7985,7.8026,7.804,7.7869,7.7869,7.7869,0,7.6454,7.6613,7.6688,7.6796,7.6868,7.6922,7.7026,7.7102,7.7253,7.7302,7.7293,7.7523,7.7605,7.7762,7.7789,7.784,7.7871,7.7844,7.7968,7.7979,7.7989,7.8029,7.8044,7.7869,7.7869,7.7869,7.7869,0,7.6608,7.6717,7.6785,7.6932,7.7012,7.7117,7.7208,7.728,7.7319,7.7387,7.7524,7.7624,7.7751,7.7792,7.783,7.7955,7.7947,7.7952,7.7935,7.8001,7.804,7.8055,7.7869,7.7869,7.7869,7.7869,0,0,7.6662,7.6852,7.6876,7.6945,7.7087,7.7173,7.7281,7.7407,7.7467,7.757,7.7663,7.7816,7.7823,7.7897,7.7946,7.8012,7.8096,7.801,7.8014,7.8023,7.8241,7.8236,7.8253,7.8114,7.8117,7.812,7.8231,0,7.6758,7.6954,7.7027,7.7188,7.729,7.7344,7.7439,7.7536,7.7602,7.7698,7.7771,7.7879,7.7879,7.7924,7.7992,7.8071,7.8141,7.8064,7.8201,7.8205,7.8171,7.8273,7.8269,7.8369,7.8247,7.825,7.8251,0,7.6896,7.7003,7.7175,7.7308,7.7354,7.7437,7.756,7.7651,7.7763,7.7807,7.7891,7.7936,7.8051,7.8027,7.8187,7.8133,7.8193,7.8241,7.8246,7.8262,7.8232,7.8292,7.8403,7.8418,7.8276,7.8274,7.8272,0,7.6919,7.7107,7.7235,7.7292,7.7449,7.7507,7.7575,7.7685,7.7757,7.7864,7.7911,7.8029,7.8094,7.8184,7.8259,7.8234,7.8413,7.8394,7.8452,7.8451,7.8487,7.8484,7.8609,7.8525,7.8525,7.8524,7.8524,0,7.7019,7.7123,7.7248,7.7326,7.7444,7.7526,7.764,7.7711,7.7809,7.7903,7.7955,7.8041,7.8136,7.8234,7.8294,7.8418,7.8447,7.8485,7.85,7.8481,7.8476,7.8522,7.8517,7.8529,7.8528,7.8527,7.8526,0,7.7065,7.7154,7.7297,7.7435,7.7472,7.7553,7.7671,7.7749,7.7819,7.7936,7.7968,7.8077,7.8196,7.8281,7.8433,7.8473,7.8607,7.8621,7.857,7.8577,7.8631,7.8625,7.879,7.8817,7.8713,7.8714,7.8715,0,7.7124,7.7205,7.7353,7.742,7.7489,7.7596,7.7671,7.7755,7.7831,7.7966,7.8028,7.8151,7.8254,7.8441,7.8533,7.865,7.8668,7.8718,7.8685,7.8665,7.867,7.8664,7.8673,7.8722,7.8723,7.8723,7.8724,0,7.7218,7.7259,7.7365,7.7488,7.7576,7.7676,7.7777,7.7828,7.793,7.8012,7.8136,7.8216,7.8373,7.8495,7.8622,7.8691,7.8725,7.8734,7.8753,7.8735,7.8703,7.8722,7.8584,7.8729,7.8729,7.8728,7.8728,7.8728,7.7273,7.7349,7.7466,7.7583,7.7668,7.7762,7.7843,7.7924,7.8029,7.8165,7.8208,7.8336,7.8448,7.8622,7.8693,7.8794,7.8792,7.882,7.8827,7.8833,7.8833,7.8686,7.8817,7.8817,7.8817,7.8817,7.8817,0,7.7372,7.745,7.7557,7.7698,7.7791,7.7817,7.793,7.8006,7.8118,7.8221,7.8322,7.8464,7.8583,7.8685,7.8809,7.887,7.8889,7.8899,7.8896,7.8912,7.8828,7.8799,7.8882,7.8882,7.8882,7.8882,7.8882,7.8882,7.7434,7.7564,7.7618,7.7791,7.7869,7.7997,7.806,7.8146,7.8229,7.8386,7.8486,7.8553,7.8656,7.8787,7.8897,7.8924,7.8967,7.8975,7.9005,7.8925,7.8917,7.891,7.8883,7.8983,7.8983,7.9081,7.9082,7.9083]}]]